EW7164 Weather Reports


time (UTC)temp
C
wind
direction
speed
KPH
gust
KPH
rain 1hr
cm
rain 24hr
cm
rain mn
cm
humidity
%
barometer
mb
20260901161033 20 132 3.2 8.0 0.00 0.00 0.00 61 1020.1
20260901160036 20 147 4.8 12.9 0.00 0.00 0.00 61 1020.0
20260901155034 19 148 11.3 16.1 0.00 0.00 0.00 63 1020.1
20260901154034 18 132 11.3 14.5 0.00 0.00 0.00 66 1020.2
20260901153132 18 133 11.3 17.7 0.00 0.00 0.00 64 1020.1
20260901153037 19 132 3.2 8.0 0.00 0.00 0.00 63 1020.1
20260901152033 19 123 6.4 14.5 0.00 0.00 0.00 63 1020.2
20260901151032 18 98 3.2 6.4 0.00 0.00 0.00 65 1020.2
20260901150036 19 111 9.7 11.3 0.00 0.00 0.00 64 1020.1
20260901145034 19 135 4.8 11.3 0.00 0.00 0.00 63 1020.1
20260901144132 19 94 8.0 12.9 0.00 0.00 0.00 63 1020.2
20260901143134 20 93 6.4 11.3 0.00 0.00 0.00 61 1020.2
20260901142133 20 117 6.4 11.3 0.00 0.00 0.00 60 1020.2
20260901141133 20 102 4.8 8.0 0.00 0.00 0.00 60 1020.2
20260901141033 20 106 6.4 9.7 0.00 0.00 0.00 60 1020.1
20260901140037 20 112 3.2 8.0 0.00 0.00 0.00 60 1020.1
20260901135035 20 104 8.0 17.7 0.00 0.00 0.00 61 1019.9
20260901134033 19 95 3.2 6.4 0.00 0.00 0.00 63 1019.9
20260901133034 19 114 3.2 9.7 0.00 0.00 0.00 63 1020.0
20260901132033 19 85 3.2 6.4 0.00 0.00 0.00 63 1019.8
20260901131052 19 37 3.2 6.4 0.00 0.00 0.00 62 1019.8
20260901130035 19 130 0.0 3.2 0.00 0.00 0.00 63 1019.9
20260901124033 18 225 0.0 0.0 0.00 0.00 0.00 67 1019.8
20260901123132 18 225 0.0 1.6 0.00 0.00 0.00 67 1019.9
20260901122135 17 67 1.6 3.2 0.00 0.00 0.00 69 1020.0
20260901121233 16 135 0.0 0.0 0.00 0.00 0.00 68 1019.9
20260901120233 16 45 1.6 3.2 0.00 0.00 0.00 72 1019.9
20260901115234 16 45 0.0 1.6 0.00 0.00 0.00 74 1019.8
20260901113334 16 45 0.0 0.0 0.00 0.00 0.00 72 1019.8
20260901113234 16 45 0.0 3.2 0.00 0.00 0.00 71 1019.8
20260901112332 17 360 0.0 0.0 0.00 0.00 0.00 68 1019.5
20260901111333 17 360 0.0 0.0 0.00 0.00 0.00 68 1019.4
20260901111235 17 360 0.0 1.6 0.00 0.00 0.00 68 1019.4
20260901110332 16 360 4.8 4.8 0.00 0.00 0.00 70 1019.5
20260901105349 15 292 0.0 0.0 0.00 0.00 0.00 72 1019.4
20260901104433 15 292 1.6 1.6 0.00 0.00 0.00 72 1019.3
20260901104335 15 292 1.6 3.2 0.00 0.00 0.00 72 1019.3
20260901103433 15 270 1.6 1.6 0.00 0.00 0.00 74 1019.4
20260901102434 15 315 3.2 4.8 0.00 0.00 0.00 72 1019.2
20260901102335 15 315 4.8 4.8 0.00 0.00 0.00 72 1019.2
20260901100432 14 315 4.8 6.4 0.00 0.00 0.00 78 1019.3
20260901095433 14 292 1.6 1.6 0.00 0.00 0.00 78 1019.2
20260901094435 14 292 4.8 4.8 0.00 0.00 0.00 78 1019.1
20260901093434 13 315 4.8 4.8 0.00 0.00 0.00 81 1019.2
20260901092434 13 345 6.4 8.0 0.00 0.00 0.00 79 1019.4
20260901090532 15 322 6.4 8.0 0.00 0.00 0.00 73 1019.2
20260901085534 16 288 8.0 8.0 0.00 0.00 0.00 72 1019.1
20260901085433 16 270 8.0 9.7 0.00 0.00 0.00 72 1019.1
20260901084434 16 270 6.4 9.7 0.00 0.00 0.00 71 1019.2
20260901083435 16 270 6.4 8.0 0.00 0.00 0.00 70 1019.1
20260901082433 16 270 8.0 11.3 0.00 0.00 0.00 69 1019.0
20260901081435 16 270 12.9 17.7 0.00 0.00 0.00 68 1019.2
20260901080532 16 270 9.7 12.9 0.00 0.00 0.00 68 1019.3
20260901075533 16 270 9.7 14.5 0.00 0.00 0.00 67 1019.2
20260901074535 16 262 9.7 14.5 0.00 0.00 0.00 65 1019.1
20260901073534 17 265 12.9 17.7 0.00 0.00 0.00 66 1019.0
20260901072632 17 250 12.9 19.3 0.00 0.00 0.00 66 1018.9
20260901072533 17 259 12.9 19.3 0.00 0.00 0.00 66 1019.0
20260901070534 16 353 4.8 8.0 0.00 0.00 0.00 66 1019.2
20260901065533 16 259 9.7 14.5 0.00 0.00 0.00 66 1019.0
20260901064536 16 327 3.2 6.4 0.00 0.00 0.00 67 1019.2
20260901064432 16 301 3.2 6.4 0.00 0.00 0.00 67 1019.2
20260901062433 15 360 4.8 6.4 0.00 0.00 0.00 70 1019.2
20260901060434 16 360 6.4 8.0 0.00 0.00 0.00 62 1019.0
20260901055532 16 7 4.8 6.4 0.00 0.00 0.00 63 1019.1
20260901055431 16 18 6.4 8.0 0.00 0.00 0.00 62 1019.0
20260901055332 16 28 6.4 6.4 0.00 0.00 0.00 63 1018.9
20260901054334 17 343 1.6 4.8 0.00 0.00 0.00 60 1019.0
20260901053433 17 253 12.9 17.7 0.00 0.00 0.00 58 1018.8
20260901050532 17 258 14.5 20.9 0.00 0.00 0.00 57 1019.0
20260901045535 17 258 17.7 24.1 0.00 0.00 0.00 56 1019.1
20260901044633 17 253 17.7 27.4 0.00 0.00 0.00 56 1019.1
20260901044535 17 254 17.7 25.7 0.00 0.00 0.00 56 1019.1
20260901043531 17 250 16.1 24.1 0.00 0.00 0.00 56 1019.2
20260901042533 17 255 12.9 17.7 0.00 0.00 0.00 55 1019.3
20260901040434 17 256 12.9 19.3 0.00 0.00 0.00 53 1019.1
20260901035442 17 254 12.9 22.5 0.00 0.00 0.00 52 1019.1
20260901034442 17 244 14.5 22.5 0.00 0.00 0.00 51 1019.3
20260901033441 17 247 19.3 30.6 0.00 0.00 0.00 51 1019.1
20260901032442 18 260 17.7 25.7 0.00 0.00 0.00 52 1019.2
20260901030544 18 254 11.3 17.7 0.00 0.08 0.00 50 1019.1
20260901025640 18 257 14.5 19.3 0.00 0.13 0.00 50 1019.1
20260901025542 18 246 12.9 20.9 0.00 0.13 0.00 50 1019.1
20260901024540 18 249 17.7 24.1 0.00 0.15 0.00 49 1019.1
20260901023541 18 257 19.3 27.4 0.00 0.15 0.00 49 1018.9
20260901022640 18 251 14.5 25.7 0.00 0.18 0.00 49 1018.9
20260901021642 18 248 16.1 24.1 0.00 0.20 0.00 48 1018.9
20260901020741 18 254 19.3 27.4 0.00 0.20 0.00 49 1019.1
20260901014740 17 254 14.5 22.5 0.00 0.23 0.00 48 1019.0
20260901014642 17 244 14.5 22.5 0.00 0.23 0.00 49 1019.1
20260901013642 17 256 19.3 27.4 0.00 0.23 0.00 51 1018.9
20260901012641 17 257 17.7 22.5 0.00 0.23 0.00 52 1019.1
20260901012543 17 252 20.9 30.6 0.00 0.23 0.00 52 1019.1
20260901010639 17 245 12.9 19.3 0.00 0.23 0.00 55 1019.2
20260901010539 17 243 11.3 19.3 0.00 0.23 0.00 55 1019.2
20260901005541 17 250 16.1 20.9 0.00 0.23 0.00 55 1019.1
20260901004542 17 240 14.5 20.9 0.00 0.30 0.00 55 1019.1
20260901003540 17 249 17.7 25.7 0.00 0.36 0.00 56 1019.1
20260901002541 17 263 20.9 30.6 0.00 0.43 0.00 55 1018.8
20260901000541 17 250 20.9 27.4 0.00 0.51 0.00 57 1018.8
20260831235542 17 258 20.9 32.2 0.00 0.53 0.00 58 1018.5
20260831234640 17 245 19.3 25.7 0.00 0.53 0.00 58 1018.5
20260831233641 17 250 16.1 35.4 0.00 0.53 0.00 57 1018.4
20260831232641 17 247 24.1 33.8 0.00 0.53 0.00 57 1018.3
20260831230641 18 245 16.1 25.7 0.00 0.56 0.00 58 1018.4
20260831225540 18 242 16.1 25.7 0.00 0.56 0.00 57 1018.4
20260831224541 19 246 19.3 27.4 0.00 0.56 0.00 57 1018.3
20260831223639 19 250 14.5 19.3 0.00 0.56 0.00 55 1018.5
20260831222641 20 242 12.9 17.7 0.00 0.56 0.00 55 1018.3
20260831221739 20 237 16.1 27.4 0.00 0.56 0.00 54 1018.3
20260831220743 20 230 14.5 20.9 0.00 0.56 0.00 54 1018.2
20260831220641 20 237 14.5 20.9 0.00 0.56 0.00 54 1018.3
20260831215740 20 230 12.9 17.7 0.00 0.56 0.00 56 1018.4
20260831213840 20 225 12.9 17.7 0.00 0.56 0.00 57 1018.2
20260831212842 21 222 12.9 17.7 0.00 0.56 0.00 56 1018.2
20260831211842 21 228 8.0 12.9 0.00 0.56 0.00 52 1018.2
20260831211739 21 231 4.8 9.7 0.00 0.56 0.00 52 1018.2
20260831210755 22 236 9.7 14.5 0.00 0.56 0.00 51 1018.1
20260831205841 22 199 6.4 8.0 0.00 0.56 0.00 46 1017.9
20260831204940 22 247 9.7 12.9 0.00 0.56 0.00 46 1018.1
20260831203942 22 221 6.4 11.3 0.00 0.56 0.00 45 1018.1
20260831202040 22 297 19.3 24.1 0.00 0.56 0.00 42 1018.0
20260831201940 23 304 17.7 27.4 0.00 0.56 0.00 42 1018.1
20260831200939 22 269 12.9 16.1 0.00 0.56 0.00 40 1018.2
20260831194942 22 270 4.8 6.4 0.00 0.56 0.00 43 1018.6
20260831192941 21 73 6.4 9.7 0.00 0.56 0.00 48 1018.7
20260831191942 21 105 6.4 8.0 0.00 0.56 0.00 50 1018.7
20260831190940 21 43 6.4 9.7 0.00 0.56 0.00 51 1018.9
20260831185942 21 76 9.7 12.9 0.00 0.56 0.00 52 1018.8
20260831184942 21 93 8.0 11.3 0.00 0.56 0.00 51 1019.0
20260831183941 21 58 11.3 14.5 0.00 0.56 0.00 50 1018.8
20260831182941 21 142 4.8 9.7 0.00 0.56 0.00 52 1019.2
20260831182041 21 81 8.0 11.3 0.00 0.56 0.00 49 1019.3
20260831181041 21 322 8.0 11.3 0.00 0.56 0.00 50 1019.3
20260831180943 21 353 1.6 8.0 0.00 0.56 0.00 50 1019.5
20260831175943 21 283 3.2 6.4 0.00 0.56 0.00 51 1019.3
20260831174940 21 123 4.8 8.0 0.00 0.56 0.00 51 1019.5
20260831174842 21 86 6.4 11.3 0.00 0.56 0.00 51 1019.6
20260831173840 21 79 6.4 9.7 0.00 0.56 0.00 51 1019.6
20260831172842 21 300 4.8 11.3 0.00 0.56 0.00 51 1019.5
20260831172740 21 303 8.0 14.5 0.00 0.56 0.00 51 1019.6
20260831171742 21 264 9.7 14.5 0.00 0.56 0.00 50 1019.7
20260831170742 21 45 3.2 6.4 0.00 0.56 0.00 53 1019.6
20260831165840 20 275 4.8 9.7 0.00 0.56 0.00 55 1019.6
20260831165741 20 267 8.0 12.9 0.00 0.56 0.00 55 1019.6
20260831164840 20 263 12.9 19.3 0.00 0.56 0.00 56 1019.7
20260831163840 20 267 9.7 14.5 0.00 0.56 0.00 56 1019.9
20260831162841 20 275 14.5 20.9 0.00 0.56 0.00 57 1019.8
20260831161940 19 277 8.0 11.3 0.00 0.56 0.00 58 1019.9